Current weather by "City, St" or "zip code"  
 

Current Conditions: Lewisburg / Greenbrier, WV

Light Rain


68.0 F

Last Updated on Oct 29 2020, 4:53 pm EDT
Humidity: 88%
Wind Speed: W 15.0 G 20.7 mph
Barometer 29.53 in
Dewpoint: 64.4 F
Visibility: 10.00 mi
Precip: --
Heat Index: NA
Wind Chill: NA
Current conditions at:

Lewisburg / Greenbrier, WV (KLWB)

Lat: 37.86667 Lon: 80.4

Local Radar Image active severe weather and emergency alerts image image weather storm and storm spotter reports image weather observation monitoring service image
Local
Radar
Active
Alerts
Storm Reports Obs
Monitoring

Sign-up For Email & Text Message Weather Alert Notification Services



Advertise Here

Observation History for Lewisburg / Greenbrier, WV


Time Wind
(mph)
Vis
(mi)
Weather Precip (in) Temperature (F) Relative
Humidity
Wind
Chill
(F)
Heat
Index
(F)
Pressure
Air Dwpt altimeter
(in)
sea level
(mb)
Rmks
4:53 pm EDT W 15.0 G 20.7 10.00 Light Rain -- 68.0 64.4 88% NA NA 29.53 M
3:52 pm EDT SW 9.2 10.00 Overcast -- 66.0 64.4 94% NA NA 30.51 M
2:55 pm EDT SW 11.5 10.00 Overcast -- 66.0 64.4 94% NA NA 29.52 M
1:54 pm EDT SW 6.9 7.00 Overcast -- 66.0 64.4 94% NA NA 29.54 M
12:55 pm EDT 7.00 Overcast -- 66.0 64.4 94% NA NA 29.52 M
11:55 am EDT N 6.9 4.00 Rain -- 64.0 62.6 94% NA NA 29.53 M
10:55 am EDT N 9.2 7.00 Light Rain -- 63.0 60.8 94% 62 NA 29.54 M
9:55 am EDT NE 6.9 4.00 Heavy Rain -- 63.0 59.0 88% 63 NA 29.62 M
8:55 am EDT N 0.0 4.00 Rain -- 61.0 59.0 94% NA NA 29.68 M
7:55 am EDT N 0.0 5.00 Rain 00.10 60.0 58.1 94% NA NA 29.71 M
6:55 am EDT N 0.0 5.00 Rain 00.04 60.0 58.1 94% NA NA 29.75 M
5:55 am EDT N 0.0 10.00 Light Rain -- 60.0 58.3 94% NA NA 29.77 M
4:55 am EDT N 0.0 7.00 Light Rain 00.15 60.0 57.7 94% NA NA 29.81 M
3:55 am EDT N 0.0 3.00 Heavy Rain 00.20 59.0 57.4 94% NA NA 29.86 M
3:35 am EDT N 0.0 3.00 Rain 00.20 59.0 57.4 94% NA NA 29.87 M
2:15 am EDT N 0.0 2.00 Rain 00.12 59.0 57.4 94% NA NA 29.92 M
1:55 am EDT N 0.0 3.00 Rain -- 59.0 57.6 94% NA NA 29.92 M
12:55 am EDT N 0.0 0.75 Rain -- 59.0 57.2 94% NA NA 29.95 M
11:55 pm EDT N 0.0 0.50 Light Rain -- 59.0 57.2 94% NA NA 29.98 M
10:55 pm EDT N 0.0 4.00 Fog/Mist -- 59.0 57.2 94% NA NA 30.00 M
9:55 pm EDT N 0.0 4.00 Fog/Mist -- 59.0 57.4 94% NA NA 30.02 M
8:55 pm EDT N 0.0 4.00 Fog/Mist -- 59.0 57.6 94% NA NA 30.05 M
7:55 pm EDT N 0.0 10.00 Overcast -- 61.0 58.8 93% NA NA 30.05 M
6:55 pm EDT N 0.0 7.00 Light Drizzle -- 61.0 59.0 94% NA NA 30.05 M

Regional Weather Observation


Beckley, Raleigh County Memorial Airport, WV (KBKW)

Rain Fog/Mist
66.0 F

Virginia Tech Airport, VA (KBCB)

Partly Cloudy
74.0 F

Hot Springs / Ingalls, VA (KHSP)

Light Rain
65.0 F

Dublin / New River Valley, VA (KPSK)

Partly Cloudy
73.0 F

Charleston, Yeager Airport, WV (KCRW)

Light Rain Fog/Mist
57.0 F

Bluefield, Mercer County Airport, WV (KBLF)

Overcast and Breezy
67.0 F